Regional Weather Roundup
Issued by NWS

Home | Current Version | Previous Version | Text Only | Print | Product List | Glossary On
Versions: 1 2 3 4 5 6 7 8 9 10 11 12 13 14 15 16 17 18 19 20 21 22 23 24 25 26 27 28 29 30 31 32 33 34 35 36 37 38 39 40 41 42 43 44 45 46 47 48 49 50
000
ASUS45 KSLC 200810
RWRUT

UTAH REGIONAL WEATHER ROUNDUP
NATIONAL WEATHER SERVICE SALT LAKE CITY UT
100 AM MST SAT DEC 20 2014

UTZ001>011-023>025-200900-

NORTHERN UTAH

CITY           SKY/WX    TMP DP  RH WIND       PRES   REMARKS
BRIGHAM CITY   CLOUDY    37  34  89 CALM      30.15S
HILL AFB       CLOUDY    36  35  99 S7        30.13F WCI  30
LOGAN          CLOUDY    35  33  92 W3        30.12F
OGDEN          LGT RAIN  36  35  96 S7        30.13F WCI  30
PROVO AIRPORT  MOCLDY    37  27  65 E3        30.16S
SALT LAKE CITY CLOUDY    39  34  82 CALM      30.13F
VERNAL         CLOUDY    27  23  85 S3        30.19F
WENDOVER       CLOUDY    34  28  80 W3        30.14F
HEBER CITY     CLOUDY    32  27  80 CALM      30.12F
WEST JORDAN    CLOUDY    37  30  75 S5        30.13F WCI  34

$$

UTZ012>022-026-027-200900-

SOUTHERN/CENTRAL UTAH

CITY           SKY/WX    TMP DP  RH WIND       PRES   REMARKS
BLANDING       CLOUDY    28  26  94 NE3       30.26F
BRYCE CANYON   CLOUDY    24  20  84 W5        30.19S WCI  18
CEDAR CITY     PTCLDY    31  24  75 CALM      30.15F
DELTA          CLOUDY    38  28  68 S6        30.14F WCI  33
MILFORD        PTCLDY    35  28  75 S9        30.14F WCI  28
MOAB/CYNLANDS  MOCLDY    31  29  92 CALM      30.21S
PRICE          MOCLDY    25  20  81 CALM      30.18F
ST GEORGE      PTSUNNY   39  30  70 CALM      30.21S
KANAB            N/A     32  30  93 NE6       30.22F WCI  26

$$

REGIONAL REPORTS     COLORADO/ARIZONA

CITY           SKY/WX    TMP DP  RH WIND       PRES   REMARKS
CRAIG, CO      CLOUDY    19  15  84 SW5       30.17S WCI  12
GRAND JUNCTION MOCLDY    28  25  88 CALM      30.21S
RIFLE          CLOUDY    26  20  77 NE3       30.21F
MONTROSE       PTCLDY    25  18  74 SE10      30.24F WCI  15
CORTEZ         CLEAR     23  20  88 NE6       30.21F WCI  16
PAGE, AZ       MOCLDY    36  28  73 CALM      30.20F
GRAND CANYON   MOCLDY    27  24  89 NE3       30.19F
KINGMAN        CLEAR     37  31  78 CALM      30.18F
FLAGSTAFF      CLOUDY    25  22  88 NE3       30.17F

$$

REGIONAL REPORTS    NEVADA/IDAHO/WYOMING

CITY           SKY/WX    TMP DP  RH WIND       PRES   REMARKS
LAS VEGAS, NV  MOCLDY    46  37  71 S7        30.14F
ELY            CLEAR     24  22  91 S5        30.17R WCI  18
ELKO           PTCLDY    30  30 100 SW3       30.12F FOG
POCATELLO, ID  CLOUDY    37  35  92 S12       30.10S WCI  29
BURLEY         CLOUDY    37  34  89 CALM      30.09F
EVANSTON, WY   MOCLDY    29  22  75 SW15      30.08F WCI  18
ROCK SPRINGS   CLOUDY    28  21  75 SW8       30.09S WCI  20
KEMMERER       CLOUDY    30  25  80 SW5       30.08F WCI  25

$$


USA.gov is the U.S. government's official web portal to all federal, state and local government web resources and services.